ATLAS 5 CENTAUR DEB, 44689

Orbit data source: Space-Track

ATLAS 5 CENTAUR DEB, 44689 is space debris in HEO originally from a launch on Wed, 17 Oct 2018 UTC launched from the Air Force Eastern Test Range (AFETR). Debris objects in space refer to the collection of defunct objects orbiting the Earth. Examples of debris include non-operational satellites, rocket bodies, and fragments generated from explosions, collisions, or faulty payload assembly.

Loading next visibility...
Identifier
44689, 2018-079BB
Orbit
HEO
Country
Flag of USUS
Related business
Flag of USUnited Launch Alliance/Lockheed Martin (US)
Manufacturer
ULA Decatur
Mission
Spacecraft
Bus & Motor
Unknown
Mass
Unknown
Launch date (UTC)
2018-10-17 (7 years ago)
Launch vehicle
Unknown
Launch site
Air Force Eastern Test Range (AFETR)
Object type
Payload
Rocket body
Debris
Shape & HBR
Unknown shape, 1.1 m
Radar Cross Section
RCS unknown

Expand to show TLE details & history
Last TLE update: 2 days ago

TLE from 2 days ago
0 ATLAS 5 CENTAUR DEB
1 44689U 18079BB  25343.44295765 -.00000144  00000-0  00000+0 0  9994
2 44689  12.8838 326.9294 4827250 116.8030 300.0605  2.13306125 49241
Epoch: 2025-12-09T10:37Z
TLE epoch observation values (Epoch: 2025-12-09T10:37:51.540Z)
Latitude
-0.00001°
Longitude
89.00903°
Altitude
18,596.419 km
Speed
4.035 km/s
True Right ascension
21h 47m 36s
True Declination
0° 00' 00"
Sunlit
Object was in daylight at epoch
Visualization orbit readout
Latitude
Unknown
Longitude
Unknown
Altitude
Unknown
Speed
Unknown
Apparent Right ascension
Unknown
Apparent Declination
Unknown
Sunlit
N/A
Visualization observer readout
Local Sidereal Time
12:51:11
Azimuth
Unknown
Elevation
Unknown
Doppler factor
Unknown
Orbital elements
Apogee altitude
31,422.668 km
Perigee altitude
6,809.347 km
Semi-major axis
25,494.145 km
Eccentricity
0.48273
Inclination
12.8838°
RAAN
326.9294°
Arg. of periapsis
116.803°
True anomaly
243.28419°
Mean anomaly
300.0605°
Eccentric anomaly
272.42721°
Mean motion
0.53319 °/min
Orbital period
675.18 mins
BSTAR
0
Loading maneuver chart data...
Computing Atmospheric mass density...

Documentation

Showing up to 5 results
|